| time (UTC) | temp F | wind direction | speed knots | gust knots | rain 1hr in | rain 24hr in | rain mn in | humidity % | barometer mb |
| 20260505011401 | 62 | 180 | 0.0 | 2.6 | 0.00 | 0.00 | 0.00 | 72 | 1013.9 |
| 20260505010901 | 63 | 180 | 1.7 | 2.6 | 0.00 | 0.00 | 0.00 | 71 | 1013.8 |
| 20260505010401 | 63 | 180 | 0.0 | 0.0 | 0.00 | 0.00 | 0.00 | 69 | 1013.7 |
| 20260505005901 | 64 | 180 | 0.0 | 0.0 | 0.00 | 0.00 | 0.00 | 68 | 1013.8 |
| 20260505005401 | 64 | 180 | 0.0 | 0.0 | 0.00 | 0.00 | 0.00 | 67 | 1013.7 |
| 20260505004401 | 66 | 180 | 0.0 | 0.0 | 0.00 | 0.00 | 0.00 | 66 | 1013.6 |
| 20260505003900 | 66 | 180 | 0.0 | 0.0 | 0.00 | 0.00 | 0.00 | 64 | 1013.6 |
| 20260505003400 | 67 | 180 | 0.0 | 0.0 | 0.00 | 0.00 | 0.00 | 62 | 1013.5 |
| 20260505002900 | 68 | 180 | 0.0 | 0.0 | 0.00 | 0.00 | 0.00 | 62 | 1013.4 |
| 20260505002400 | 69 | 180 | 0.0 | 0.0 | 0.00 | 0.00 | 0.00 | 59 | 1013.4 |
| 20260505001900 | 71 | 180 | 0.0 | 0.0 | 0.00 | 0.00 | 0.00 | 57 | 1013.5 |
| 20260505001400 | 72 | 180 | 0.0 | 0.0 | 0.00 | 0.00 | 0.00 | 53 | 1013.4 |
| 20260505000900 | 73 | 180 | 0.0 | 0.0 | 0.00 | 0.00 | 0.00 | 52 | 1013.5 |
| 20260505000400 | 74 | 180 | 0.0 | 1.7 | 0.00 | 0.00 | 0.00 | 51 | 1013.6 |
| 20260504235900 | 74 | 180 | 0.0 | 2.6 | 0.00 | 0.00 | 0.00 | 52 | 1013.7 |
| 20260504235359 | 74 | 180 | 0.9 | 5.2 | 0.00 | 0.00 | 0.00 | 48 | 1013.6 |
| 20260504234859 | 74 | 180 | 1.7 | 6.1 | 0.00 | 0.00 | 0.00 | 48 | 1013.4 |
| 20260504234359 | 75 | 188 | 4.3 | 6.1 | 0.00 | 0.00 | 0.00 | 47 | 1013.6 |
| 20260504233859 | 75 | 195 | 1.7 | 3.5 | 0.00 | 0.00 | 0.00 | 49 | 1013.6 |
| 20260504233359 | 75 | 196 | 3.5 | 7.0 | 0.00 | 0.00 | 0.00 | 47 | 1013.6 |
| 20260504232859 | 76 | 178 | 2.6 | 7.0 | 0.00 | 0.00 | 0.00 | 45 | 1013.7 |
| 20260504232359 | 76 | 210 | 3.5 | 6.1 | 0.00 | 0.00 | 0.00 | 45 | 1013.7 |
| 20260504231858 | 76 | 219 | 3.5 | 7.0 | 0.00 | 0.00 | 0.00 | 44 | 1013.8 |
| 20260504231358 | 76 | 209 | 2.6 | 7.0 | 0.00 | 0.00 | 0.00 | 43 | 1013.8 |
| 20260504230858 | 76 | 182 | 1.7 | 8.7 | 0.00 | 0.00 | 0.00 | 44 | 1013.7 |
| 20260504230358 | 77 | 187 | 5.2 | 8.7 | 0.00 | 0.00 | 0.00 | 41 | 1013.8 |
| 20260504225858 | 77 | 194 | 2.6 | 6.1 | 0.00 | 0.00 | 0.00 | 45 | 1013.9 |
| 20260504225358 | 78 | 205 | 4.3 | 5.2 | 0.00 | 0.00 | 0.00 | 44 | 1013.8 |
| 20260504224858 | 77 | 216 | 0.9 | 8.7 | 0.00 | 0.00 | 0.00 | 44 | 1013.7 |
| 20260504224358 | 77 | 207 | 1.7 | 8.7 | 0.00 | 0.00 | 0.00 | 44 | 1013.8 |
| 20260504223857 | 77 | 171 | 6.1 | 8.7 | 0.00 | 0.00 | 0.00 | 41 | 1013.8 |
| 20260504223358 | 77 | 194 | 0.9 | 8.7 | 0.00 | 0.00 | 0.00 | 42 | 1013.9 |
| 20260504222857 | 77 | 150 | 5.2 | 8.7 | 0.00 | 0.00 | 0.00 | 43 | 1014.0 |
| 20260504222357 | 77 | 190 | 6.1 | 8.7 | 0.00 | 0.00 | 0.00 | 41 | 1014.1 |
| 20260504221857 | 78 | 203 | 3.5 | 8.7 | 0.00 | 0.00 | 0.00 | 40 | 1014.2 |
| 20260504221357 | 78 | 180 | 5.2 | 8.7 | 0.00 | 0.00 | 0.00 | 42 | 1014.2 |
| 20260504220857 | 78 | 188 | 3.5 | 9.6 | 0.00 | 0.00 | 0.00 | 41 | 1014.2 |
| 20260504220357 | 78 | 163 | 3.5 | 9.6 | 0.00 | 0.00 | 0.00 | 41 | 1014.3 |
| 20260504215356 | 78 | 189 | 8.7 | 10.4 | 0.00 | 0.00 | 0.00 | 41 | 1014.2 |
| 20260504214356 | 79 | 211 | 7.0 | 8.7 | 0.00 | 0.01 | 0.00 | 44 | 1014.3 |
| 20260504213856 | 79 | 235 | 4.3 | 9.6 | 0.00 | 0.01 | 0.00 | 43 | 1014.3 |
| 20260504213356 | 79 | 220 | 5.2 | 9.6 | 0.00 | 0.01 | 0.00 | 42 | 1014.2 |
| 20260504212356 | 79 | 233 | 5.2 | 8.7 | 0.00 | 0.01 | 0.00 | 42 | 1014.3 |
| 20260504211856 | 79 | 221 | 2.6 | 7.8 | 0.00 | 0.01 | 0.00 | 42 | 1014.2 |
| 20260504211356 | 79 | 144 | 7.0 | 11.3 | 0.00 | 0.01 | 0.00 | 44 | 1014.3 |
| 20260504205855 | 79 | 149 | 5.2 | 9.6 | 0.00 | 0.01 | 0.00 | 44 | 1014.3 |
| 20260504205355 | 78 | 188 | 6.1 | 9.6 | 0.00 | 0.01 | 0.00 | 43 | 1014.4 |
| 20260504204355 | 78 | 238 | 5.2 | 7.8 | 0.00 | 0.01 | 0.00 | 43 | 1014.5 |
| 20260504203855 | 78 | 147 | 2.6 | 6.1 | 0.00 | 0.01 | 0.00 | 43 | 1014.5 |
| 20260504203355 | 77 | 189 | 0.9 | 7.0 | 0.00 | 0.01 | 0.00 | 44 | 1014.6 |
| 20260504202854 | 77 | 147 | 3.5 | 7.0 | 0.00 | 0.01 | 0.00 | 46 | 1014.7 |
| 20260504202354 | 77 | 225 | 0.9 | 9.6 | 0.00 | 0.01 | 0.00 | 47 | 1014.7 |
| 20260504201854 | 77 | 240 | 2.6 | 9.6 | 0.00 | 0.01 | 0.00 | 46 | 1014.8 |
| 20260504201354 | 78 | 258 | 6.1 | 8.7 | 0.00 | 0.01 | 0.00 | 43 | 1014.8 |
| 20260504200854 | 78 | 211 | 6.1 | 7.8 | 0.00 | 0.01 | 0.00 | 48 | 1015.0 |
| 20260504200354 | 78 | 113 | 0.9 | 8.7 | 0.00 | 0.01 | 0.00 | 47 | 1015.1 |
| 20260504195854 | 78 | 172 | 2.6 | 8.7 | 0.00 | 0.01 | 0.00 | 44 | 1015.2 |
| 20260504195354 | 78 | 191 | 0.9 | 8.7 | 0.00 | 0.01 | 0.00 | 42 | 1015.1 |
| 20260504194354 | 77 | 250 | 0.9 | 8.7 | 0.00 | 0.01 | 0.00 | 44 | 1015.2 |
| 20260504193853 | 77 | 186 | 4.3 | 10.4 | 0.00 | 0.01 | 0.00 | 45 | 1015.3 |
| 20260504193353 | 77 | 152 | 4.3 | 10.4 | 0.00 | 0.01 | 0.00 | 43 | 1015.3 |
| 20260504192853 | 77 | 168 | 7.8 | 7.8 | 0.00 | 0.01 | 0.00 | 48 | 1015.4 |
| 20260504192353 | 77 | 309 | 2.6 | 7.8 | 0.00 | 0.01 | 0.00 | 45 | 1015.4 |
| 20260504191853 | 77 | 234 | 7.8 | 8.7 | 0.00 | 0.01 | 0.00 | 46 | 1015.5 |
| 20260504191353 | 77 | 207 | 2.6 | 11.3 | 0.00 | 0.01 | 0.00 | 45 | 1015.7 |
| 20260504190853 | 77 | 177 | 5.2 | 11.3 | 0.00 | 0.01 | 0.00 | 50 | 1015.8 |
| 20260504190352 | 76 | 252 | 1.7 | 7.8 | 0.00 | 0.01 | 0.00 | 46 | 1015.9 |
| 20260504185852 | 76 | 161 | 1.7 | 9.6 | 0.00 | 0.01 | 0.00 | 50 | 1016.0 |
| 20260504184853 | 75 | 203 | 3.5 | 9.6 | 0.00 | 0.01 | 0.00 | 49 | 1016.0 |
| 20260504184353 | 76 | 130 | 4.3 | 9.6 | 0.00 | 0.01 | 0.00 | 48 | 1016.2 |
| 20260504182852 | 76 | 221 | 3.5 | 8.7 | 0.00 | 0.01 | 0.00 | 47 | 1016.5 |
| 20260504182352 | 76 | 174 | 1.7 | 9.6 | 0.00 | 0.01 | 0.00 | 48 | 1016.5 |
| 20260504181851 | 76 | 160 | 6.1 | 9.6 | 0.00 | 0.01 | 0.00 | 51 | 1016.4 |
| 20260504181352 | 76 | 144 | 2.6 | 7.8 | 0.00 | 0.01 | 0.00 | 53 | 1016.5 |
| 20260504180851 | 76 | 178 | 0.0 | 7.8 | 0.00 | 0.01 | 0.00 | 49 | 1016.6 |
| 20260504180351 | 75 | 197 | 4.3 | 7.0 | 0.00 | 0.01 | 0.00 | 54 | 1016.5 |
| 20260504175851 | 75 | 296 | 0.9 | 7.0 | 0.00 | 0.01 | 0.00 | 54 | 1016.6 |
| 20260504174851 | 75 | 270 | 2.6 | 10.4 | 0.00 | 0.01 | 0.00 | 52 | 1016.7 |
| 20260504174351 | 75 | 159 | 0.9 | 10.4 | 0.00 | 0.01 | 0.00 | 54 | 1016.7 |
| 20260504173851 | 75 | 129 | 6.1 | 7.0 | 0.00 | 0.01 | 0.00 | 51 | 1016.8 |
| 20260504173351 | 75 | 144 | 1.7 | 9.6 | 0.00 | 0.01 | 0.00 | 51 | 1017.0 |
| 20260504172851 | 74 | 139 | 4.3 | 9.6 | 0.00 | 0.01 | 0.00 | 54 | 1017.0 |
| 20260504171851 | 74 | 234 | 4.3 | 5.2 | 0.00 | 0.01 | 0.00 | 52 | 1017.3 |
| 20260504171350 | 74 | 198 | 3.5 | 12.2 | 0.00 | 0.01 | 0.00 | 53 | 1017.3 |
| 20260504170850 | 74 | 141 | 1.7 | 12.2 | 0.00 | 0.01 | 0.00 | 52 | 1017.4 |
| 20260504160349 | 71 | 247 | 3.5 | 7.8 | 0.00 | 0.01 | 0.00 | 59 | 1018.2 |
| 20260504150848 | 67 | 225 | 3.5 | 7.0 | 0.00 | 0.01 | 0.00 | 67 | 1018.1 |
| 20260504150348 | 67 | 194 | 1.7 | 7.0 | 0.00 | 0.01 | 0.00 | 67 | 1018.1 |
| 20260504140847 | 62 | 157 | 2.6 | 4.3 | 0.00 | 0.02 | 0.00 | 72 | 1018.7 |
| 20260504140347 | 61 | 154 | 0.9 | 3.5 | 0.00 | 0.02 | 0.00 | 73 | 1018.7 |
| 20260504130346 | 53 | 192 | 2.6 | 2.6 | 0.00 | 0.02 | 0.00 | 91 | 1018.5 |
| 20260504110344 | 44 | 219 | 0.0 | 0.0 | 0.00 | 0.02 | 0.00 | 93 | 1017.9 |
| 20260504100342 | 45 | 219 | 0.0 | 0.0 | 0.00 | 0.02 | 0.00 | 93 | 1018.1 |
| 20260504081841 | 46 | 219 | 0.0 | 0.9 | 0.00 | 0.02 | 0.00 | 91 | 1018.0 |
| 20260504081341 | 45 | 219 | 0.0 | 0.0 | 0.00 | 0.02 | 0.00 | 91 | 1018.0 |
| 20260504080840 | 45 | 219 | 0.0 | 0.9 | 0.00 | 0.02 | 0.00 | 91 | 1018.1 |
| 20260504080341 | 46 | 219 | 0.0 | 0.9 | 0.00 | 0.02 | 0.00 | 91 | 1018.1 |
| 20260504070339 | 47 | 219 | 0.0 | 2.6 | 0.00 | 0.02 | 0.00 | 90 | 1018.0 |
| 20260504050337 | 49 | 242 | 0.0 | 0.0 | 0.00 | 0.02 | 0.00 | 88 | 1018.9 |
| 20260504045837 | 49 | 243 | 0.0 | 0.0 | 0.00 | 0.02 | 0.00 | 88 | 1018.9 |
| 20260504045407 | 48 | 244 | 0.0 | 0.0 | 0.00 | 0.02 | 0.00 | 88 | 1019.0 |
| 20260504044837 | 48 | 248 | 0.0 | 0.0 | 0.00 | 0.02 | 0.02 | 87 | 1018.9 |
| 20260504043837 | 49 | 248 | 0.0 | 0.0 | 0.00 | 0.02 | 0.02 | 87 | 1018.9 |
| 20260504043336 | 49 | 248 | 0.0 | 0.0 | 0.00 | 0.02 | 0.02 | 87 | 1019.1 |
| 20260504042906 | 49 | 248 | 0.0 | 0.0 | 0.00 | 0.02 | 0.02 | 87 | 1019.1 |
| 20260504042336 | 49 | 248 | 0.0 | 0.0 | 0.00 | 0.02 | 0.02 | 86 | 1019.1 |
| 20260504041906 | 49 | 248 | 0.0 | 0.0 | 0.00 | 0.03 | 0.02 | 86 | 1019.1 |
| 20260504041406 | 50 | 248 | 0.0 | 0.0 | 0.00 | 0.03 | 0.02 | 86 | 1019.2 |
| 20260504040906 | 50 | 248 | 0.0 | 0.0 | 0.00 | 0.03 | 0.02 | 86 | 1019.2 |
| 20260504040406 | 50 | 248 | 0.0 | 0.0 | 0.00 | 0.03 | 0.02 | 86 | 1019.2 |
| 20260504035405 | 50 | 248 | 0.0 | 0.0 | 0.00 | 0.03 | 0.02 | 84 | 1019.4 |
| 20260504034905 | 51 | 248 | 0.0 | 0.0 | 0.00 | 0.03 | 0.02 | 83 | 1019.3 |
| 20260504033905 | 51 | 248 | 0.0 | 0.0 | 0.00 | 0.03 | 0.02 | 82 | 1019.3 |
| 20260504033405 | 51 | 248 | 0.0 | 0.0 | 0.00 | 0.03 | 0.02 | 81 | 1019.3 |
| 20260504032905 | 51 | 248 | 0.0 | 0.0 | 0.00 | 0.03 | 0.02 | 83 | 1019.3 |
| 20260504032405 | 50 | 248 | 0.0 | 0.0 | 0.00 | 0.03 | 0.02 | 83 | 1019.3 |
| 20260504031905 | 50 | 248 | 0.0 | 0.0 | 0.00 | 0.03 | 0.02 | 82 | 1019.2 |
| 20260504031405 | 50 | 248 | 0.0 | 0.0 | 0.00 | 0.03 | 0.02 | 83 | 1019.2 |
| 20260504030405 | 50 | 248 | 0.0 | 0.0 | 0.00 | 0.03 | 0.02 | 84 | 1019.1 |
| 20260504025404 | 51 | 248 | 0.0 | 0.0 | 0.00 | 0.03 | 0.02 | 83 | 1019.0 |
| 20260504024904 | 51 | 248 | 0.0 | 0.0 | 0.00 | 0.03 | 0.02 | 82 | 1019.0 |
| 20260504024404 | 51 | 248 | 0.0 | 0.0 | 0.00 | 0.03 | 0.02 | 80 | 1018.9 |
| 20260504023904 | 51 | 248 | 0.0 | 0.0 | 0.00 | 0.03 | 0.02 | 79 | 1019.0 |
| 20260504023334 | 51 | 248 | 0.0 | 0.0 | 0.00 | 0.03 | 0.02 | 82 | 1019.0 |
| 20260504022904 | 51 | 248 | 0.0 | 0.0 | 0.00 | 0.03 | 0.02 | 83 | 1018.9 |
| 20260504022404 | 51 | 248 | 0.0 | 0.0 | 0.00 | 0.03 | 0.02 | 82 | 1018.8 |
| 20260504021904 | 52 | 248 | 0.0 | 0.0 | 0.00 | 0.03 | 0.02 | 82 | 1018.8 |
| 20260504021403 | 52 | 248 | 0.0 | 0.0 | 0.00 | 0.03 | 0.02 | 80 | 1018.7 |
| 20260504020903 | 52 | 248 | 0.0 | 0.0 | 0.00 | 0.03 | 0.02 | 81 | 1018.6 |
| 20260504020403 | 52 | 248 | 0.0 | 0.0 | 0.00 | 0.03 | 0.02 | 80 | 1018.7 |
| 20260504015903 | 52 | 248 | 0.0 | 0.0 | 0.00 | 0.03 | 0.02 | 82 | 1018.6 |
| 20260504014903 | 53 | 248 | 0.0 | 0.0 | 0.00 | 0.03 | 0.02 | 81 | 1018.5 |
| 20260504014403 | 53 | 248 | 0.0 | 0.0 | 0.00 | 0.03 | 0.02 | 79 | 1018.4 |
| 20260504013903 | 53 | 248 | 0.0 | 0.0 | 0.00 | 0.03 | 0.02 | 79 | 1018.3 |
| 20260504013403 | 53 | 248 | 0.0 | 0.0 | 0.00 | 0.03 | 0.02 | 76 | 1018.3 |
| 20260504012903 | 53 | 248 | 0.0 | 0.0 | 0.00 | 0.03 | 0.02 | 79 | 1018.4 |
| 20260504012402 | 53 | 248 | 0.0 | 0.0 | 0.00 | 0.03 | 0.02 | 81 | 1018.4 |